GFSNGP_sfc_thetae_159.txt.gz
Theta_e
290 292 291 291 291 293 292 294 290 293 289 296 301 302 305 309 311 313 314 323 332 327 326 327 328 327 326 328 332 332 327 325 325 323 323 322 321 320 320 320 319 319 318 316
290 293 293 291 293 293 294 294 294 295 293 300 305 305 307 310 313 313 324 324 323 321 321 323 324 323 323 324 327 328 325 322 322 320 318 319 320 319 319 318 319 318 317 315
287 294 291 287 293 294 294 296 297 291 296 302 302 304 308 308 315 322 318 318 317 317 318 320 322 322 320 322 325 323 322 320 318 318 317 318 318 318 318 318 318 317 315 313
286 291 282 292 300 299 297 298 300 298 299 301 302 302 307 316 320 315 315 314 314 315 316 318 321 321 321 323 325 323 321 319 318 318 317 317 317 316 317 317 316 316 315 313
285 285 288 293 295 294 294 295 302 299 301 300 302 303 301 311 313 312 311 311 312 314 315 318 320 323 326 324 323 322 319 318 317 317 316 316 315 316 317 316 315 314 313 312
288 287 283 287 296 302 303 291 301 300 301 300 302 295 296 304 306 306 308 309 310 312 313 316 319 325 325 321 319 317 317 316 317 316 316 315 316 316 316 315 313 311 309 307
289 288 289 290 293 305 287 291 299 304 304 302 297 300 302 303 304 306 306 307 309 311 312 314 319 322 320 318 315 316 316 316 315 316 315 315 315 315 314 313 311 309 308 307
288 286 284 293 295 289 293 298 305 304 302 298 300 301 301 302 303 305 305 307 309 310 313 317 319 320 317 315 315 315 314 313 313 314 313 313 314 314 314 313 311 310 308 306
286 287 292 293 291 296 297 302 303 302 301 300 298 299 299 299 301 303 305 306 309 310 312 314 316 315 312 312 313 312 311 311 312 313 313 313 312 312 310 311 309 308 307 305
287 290 290 291 294 296 303 302 303 303 300 299 296 297 298 298 299 300 302 304 308 310 311 310 311 311 311 311 312 311 310 310 310 309 309 310 308 307 304 305 307 306 305 303
288 290 291 292 294 296 299 300 300 300 300 298 298 296 297 298 299 301 302 304 308 309 308 308 309 309 310 310 310 308 307 306 306 303 298 295 293 298 295 292 295 298 296 294
285 288 289 291 294 296 297 296 297 298 298 300 299 298 298 297 300 301 302 305 308 307 307 306 307 307 308 308 308 307 306 304 303 300 298 296 293 290 288 288 288 288 288 290
290 291 292 293 294 297 296 296 297 298 298 297 299 298 299 299 301 302 303 305 306 306 306 306 306 306 307 308 308 307 307 306 303 302 301 299 297 294 291 290 289 288 288 288
294 293 290 291 291 295 296 297 298 297 298 298 299 300 299 300 301 302 302 304 305 305 305 305 305 305 307 308 307 307 307 300 305 304 303 303 302 301 299 297 295 293 288 291
291 293 292 292 293 294 296 296 295 294 295 295 297 297 298 297 298 300 304 304 305 305 304 304 304 305 307 306 306 306 305 305 305 305 304 302 301 300 299 298 298 297 297 292
291 291 291 291 291 293 294 294 292 293 294 295 296 296 298 299 299 300 302 303 301 301 303 304 303 305 306 306 305 304 302 296 299 301 301 300 300 299 298 297 295 294 294 295
290 289 290 290 290 291 292 294 293 293 295 294 296 297 298 299 300 299 300 302 303 303 304 304 303 304 304 303 302 301 300 301 296 300 300 300 299 298 297 296 294 293 292 291
292 293 293 292 291 292 292 294 295 295 295 298 299 299 299 298 298 300 301 302 303 302 303 303 304 303 302 302 301 300 300 300 299 299 299 298 298 298 297 296 296 295 294 292
292 293 294 293 294 294 294 295 296 297 298 298 298 298 299 299 300 300 302 300 300 299 300 301 296 301 302 298 300 300 300 299 298 298 297 294 297 297 296 296 295 295 294 294
293 294 294 293 295 295 295 297 297 297 298 299 299 298 299 300 301 301 301 299 300 300 301 301 301 300 300 299 296 300 299 298 298 298 297 296 296 295 294 291 295 294 294 293
293 293 294 294 294 296 296 296 296 296 299 299 298 298 299 301 302 302 300 297 300 302 300 297 299 299 299 298 299 300 299 298 298 297 297 296 296 296 295 295 294 294 293 293
294 293 294 296 295 295 297 297 297 296 298 299 299 299 298 298 298 299 300 298 299 293 299 299 299 293 296 291 300 299 299 299 298 298 297 297 296 295 295 294 294 294 294 293
298 296 296 296 296 296 297 297 297 297 298 299 299 299 299 299 298 295 294 298 299 295 299 298 288 286 286 301 299 299 299 298 298 298 297 297 296 296 295 294 294 294 294 293
300 300 298 298 298 298 296 297 297 298 298 299 301 301 300 298 298 299 299 292 290 294 295 294 291 286 285 300 299 299 298 298 298 298 297 292 296 295 295 294 294 294 293 292
298 299 299 297 296 295 298 298 297 297 297 298 299 300 301 300 298 298 298 296 289 293 295 285 286 286 299 299 299 298 298 298 298 298 298 297 296 295 295 295 294 294 293 293
299 298 298 299 298 296 295 297 295 296 296 296 298 299 299 299 298 297 297 295 297 293 296 296 298 298 299 299 299 299 298 296 297 297 296 297 296 296 295 295 294 294 294 293
299 296 297 296 297 297 296 296 295 295 295 296 296 297 297 297 297 296 294 297 297 297 297 297 298 297 298 298 298 298 297 298 294 297 297 296 296 296 297 297 296 295 294 293

GFSNGP_sfc_thetae_162.txt.gz
Theta_e
290 291 291 291 290 291 291 292 288 291 291 295 299 301 303 306 308 310 313 329 330 327 321 323 328 329 329 328 329 328 326 324 323 324 325 324 321 321 320 320 319 317 314 311
288 292 292 290 292 293 293 293 293 294 293 300 303 304 304 305 309 311 317 324 325 326 326 324 326 327 325 325 325 323 321 321 322 322 321 319 319 319 319 318 317 315 312 308
285 293 292 286 291 293 294 296 296 292 297 301 302 303 304 307 307 312 321 322 323 322 321 321 324 326 324 323 323 321 320 320 320 319 318 318 318 318 318 317 316 312 308 303
284 290 282 289 298 297 296 298 300 300 301 302 303 304 307 310 310 311 318 318 319 319 319 320 322 322 323 322 321 320 319 318 318 318 317 318 317 317 317 317 315 312 309 303
285 285 290 292 292 291 291 293 300 300 301 302 304 305 305 309 317 317 317 318 319 320 319 320 321 322 321 321 322 320 318 318 317 317 316 316 316 315 315 314 312 310 310 307
286 286 282 286 292 298 299 287 295 295 299 302 301 298 297 305 310 311 314 317 318 320 319 320 321 322 320 320 319 317 317 316 317 317 316 315 316 315 315 313 310 307 303 304
287 288 288 289 292 299 287 287 292 296 302 302 299 300 303 307 309 311 313 315 318 320 320 321 322 320 318 317 315 316 317 317 316 317 315 315 315 315 312 310 309 307 305 302
286 284 282 292 292 284 290 293 295 301 301 300 300 301 303 305 307 309 310 313 316 315 316 318 318 318 315 314 315 316 315 314 314 314 314 314 314 314 313 312 310 308 307 303
285 285 292 292 290 294 296 300 300 300 300 301 299 300 303 304 307 308 311 312 314 314 313 314 316 316 312 313 314 314 313 312 313 313 313 314 313 313 312 314 310 307 304 298
287 290 290 291 293 295 299 300 300 300 300 300 298 299 301 303 305 306 308 309 311 310 310 310 314 313 313 313 313 312 311 310 306 299 300 301 298 295 294 300 301 300 298 296
287 291 290 292 292 295 298 300 299 300 300 300 300 299 300 301 304 306 308 309 309 308 308 309 311 312 312 312 312 308 303 300 297 295 292 289 289 292 289 289 293 293 291 290
285 288 288 290 293 297 296 297 299 298 298 299 300 300 301 301 303 305 306 307 307 308 309 309 310 310 309 309 307 303 300 298 295 293 291 290 288 288 289 289 289 288 289 290
288 292 292 293 294 298 296 297 299 298 298 298 300 301 301 302 303 304 305 306 307 308 308 307 307 306 307 309 307 303 299 298 297 296 295 293 291 290 288 289 289 289 288 289
292 293 291 292 291 297 296 297 299 299 300 300 301 302 302 302 304 304 304 306 308 308 306 306 306 306 307 307 306 304 303 299 301 300 298 297 296 296 296 294 292 291 289 291
291 293 292 294 295 296 296 296 295 296 297 298 300 300 301 301 301 302 305 307 307 306 306 306 305 306 307 308 307 306 305 304 304 304 302 301 300 299 298 298 297 295 293 290
291 291 292 291 293 294 294 293 292 294 296 297 297 299 300 301 302 303 304 306 304 303 304 305 304 305 307 307 304 302 301 297 299 300 300 300 299 297 296 295 294 294 293 294
290 288 289 290 292 292 293 294 293 294 296 296 297 299 300 300 301 301 302 302 303 304 304 304 304 304 304 304 302 301 301 302 297 300 300 299 298 296 295 294 293 292 292 292
293 293 293 293 293 292 293 294 294 294 295 298 299 298 298 299 298 299 301 302 301 302 303 303 303 302 303 303 302 301 301 301 300 299 299 298 298 298 297 296 295 293 293 292
294 293 294 294 294 294 294 295 296 297 297 297 298 297 299 299 300 300 301 300 299 298 300 302 297 302 303 301 301 301 300 300 299 298 298 295 297 297 296 295 295 294 294 293
293 294 294 295 296 296 295 296 297 296 298 297 297 296 296 298 299 299 299 297 298 300 303 302 303 303 303 300 297 300 299 298 298 298 298 297 296 295 294 292 294 293 294 293
293 294 294 295 295 297 297 297 297 296 297 298 297 297 297 299 300 299 297 295 299 301 302 299 301 301 300 298 299 300 299 298 297 298 297 296 296 296 295 295 294 293 293 293
294 294 295 295 295 295 297 299 298 297 297 298 299 300 300 299 299 299 302 298 299 293 299 300 299 291 294 295 300 300 300 299 299 298 297 296 296 295 295 294 294 293 293 293
294 295 295 295 295 295 297 297 298 298 298 298 298 298 298 299 300 298 295 300 300 295 299 296 287 286 286 301 300 300 300 299 299 298 297 297 296 296 295 294 294 294 293 292
295 297 296 297 297 296 295 296 298 299 299 299 300 300 298 296 298 299 299 293 290 295 296 294 290 286 292 300 300 299 299 299 298 298 297 292 296 295 295 295 293 293 294 293
298 298 298 297 296 295 296 297 298 300 300 301 300 301 302 301 298 298 298 295 290 294 295 286 287 288 300 299 300 299 298 298 298 297 298 298 297 296 296 295 294 294 294 294
299 297 297 298 298 297 297 297 296 297 298 298 298 299 300 300 299 298 297 294 296 293 296 296 298 299 299 299 299 299 298 297 298 296 296 297 296 295 294 294 294 294 294 294
300 298 299 297 297 297 298 297 296 296 297 298 297 298 299 298 298 297 294 296 295 297 298 298 298 297 299 299 299 298 298 299 295 298 297 297 297 297 298 298 297 296 294 293

GFSNGP_sfc_thetae_165.txt.gz
Theta_e
288 289 289 289 289 290 288 289 284 288 289 293 295 297 299 302 305 307 309 313 321 324 325 328 330 332 336 337 333 329 326 323 322 321 320 318 316 315 313 310 307 305 303 301
285 289 291 289 291 292 291 292 290 291 290 296 298 300 302 305 306 307 308 317 317 322 325 324 323 323 323 323 324 323 321 320 319 317 317 315 314 312 310 308 304 300 296 295
280 289 288 285 289 292 293 295 294 288 292 297 296 300 302 305 307 307 310 319 317 318 322 322 322 322 322 321 321 320 319 318 316 316 314 314 314 311 307 303 300 296 293 291
281 284 277 290 293 292 291 295 296 293 295 298 299 300 303 306 305 308 311 319 320 321 321 323 322 321 321 320 318 317 316 315 315 314 314 313 311 309 308 304 299 294 291 290
281 282 287 290 289 288 288 289 294 292 295 296 300 300 300 306 311 313 316 319 321 322 321 320 320 320 318 318 317 316 315 314 314 314 313 312 310 309 306 303 302 295 293 292
284 282 281 284 289 293 292 287 292 292 292 292 296 291 297 304 308 313 316 318 318 320 319 319 319 319 317 315 315 314 314 314 314 314 311 310 307 305 303 299 298 298 296 294
284 284 286 289 291 294 285 286 291 292 293 293 297 298 303 308 311 314 317 317 319 319 318 318 319 318 315 314 313 314 314 314 313 312 310 309 306 305 303 298 296 294 292 291
281 282 278 291 290 283 288 291 297 299 301 298 300 302 305 307 310 312 316 318 318 317 316 317 316 315 312 311 314 313 312 311 310 309 309 307 305 304 303 301 300 295 290 288
282 282 290 292 291 292 294 296 298 299 301 301 301 302 304 306 309 313 315 315 315 313 311 313 313 313 310 310 311 310 309 309 306 299 297 296 296 297 302 301 297 291 287 285
286 289 290 291 292 293 296 298 299 300 299 301 300 302 303 306 308 310 311 310 311 310 309 309 311 310 310 310 309 298 296 294 293 293 290 290 290 291 292 291 289 289 286 284
286 289 289 292 291 293 296 299 298 299 300 300 301 301 303 305 307 307 308 309 309 308 308 308 309 309 305 300 298 295 292 290 288 287 286 286 286 287 287 286 287 285 283 283
283 288 287 288 292 294 296 297 298 298 298 301 302 302 303 304 306 306 306 307 307 307 307 307 306 301 300 299 296 293 290 289 287 286 285 285 285 285 289 289 290 289 289 286
287 291 292 292 293 297 297 298 298 299 300 300 302 303 304 304 305 306 306 306 306 305 305 304 301 301 300 298 295 293 290 289 289 288 286 286 286 286 284 287 290 289 289 289
292 292 290 292 291 296 297 298 300 300 301 301 301 303 303 304 304 304 303 304 305 304 303 303 301 299 299 298 296 295 294 293 290 288 288 288 288 288 288 286 284 284 288 288
291 293 292 294 296 295 297 297 296 297 299 300 301 302 303 303 303 303 304 305 304 304 303 301 300 299 301 301 299 297 296 294 293 292 292 292 292 291 289 288 286 285 286 289
291 292 293 293 293 293 294 296 295 295 298 299 299 300 302 302 302 303 304 304 302 300 302 303 302 302 303 302 299 297 296 294 295 295 294 292 291 289 288 288 287 286 285 285
289 288 290 291 292 292 292 294 296 296 297 298 299 300 301 301 301 302 302 303 302 302 302 300 299 300 300 299 297 297 297 297 294 294 293 291 290 288 288 286 285 286 285 285
293 293 293 293 293 292 292 295 296 297 297 298 300 300 300 300 299 299 300 300 299 299 299 299 299 299 299 298 298 297 295 295 294 293 293 291 290 289 288 287 286 287 286 287
293 293 294 294 294 294 293 295 296 298 298 299 299 298 299 299 298 298 299 298 297 296 296 298 297 298 297 297 296 296 295 294 293 292 292 291 290 290 289 288 287 287 287 287
294 294 295 295 296 296 295 296 296 297 298 298 298 298 297 297 297 297 297 295 296 297 298 298 298 296 295 295 294 294 294 292 292 291 291 289 289 288 288 288 288 287 287 287
293 295 295 295 295 296 296 297 295 296 297 298 297 297 296 296 297 296 295 294 296 297 296 295 295 295 295 294 294 293 292 292 291 290 289 288 288 288 288 287 287 287 287 286
294 294 295 296 295 295 297 297 297 296 297 296 298 297 297 295 296 296 297 294 294 294 294 291 289 289 291 293 295 293 293 293 291 291 289 288 288 288 287 287 287 287 286 285
295 295 295 295 295 295 296 297 296 297 297 298 297 297 295 296 297 293 291 295 295 292 291 288 286 288 289 296 295 294 294 293 291 290 289 289 288 288 287 287 287 286 285 284
295 296 295 296 297 296 295 296 297 297 297 298 299 299 298 296 295 295 295 291 289 291 290 288 288 289 290 294 294 294 293 292 291 289 289 287 288 287 287 286 286 286 286 286
295 296 296 295 294 294 296 297 297 297 297 297 297 298 298 297 294 292 292 291 289 291 289 285 287 289 295 294 293 292 292 290 290 290 290 288 287 288 287 287 287 287 286 285
296 295 296 295 295 296 295 296 295 297 297 295 296 296 295 294 293 293 293 292 293 291 290 290 292 293 293 293 293 293 292 291 291 291 291 288 287 286 286 287 287 287 286 286
296 295 296 295 296 296 296 295 295 294 296 295 294 295 294 294 293 292 291 292 291 292 292 292 292 293 294 294 293 293 292 292 290 291 291 290 289 289 288 288 288 287 286 286

GFSNGP_sfc_thetae_168.txt.gz
Theta_e
287 288 288 287 287 289 287 287 284 286 286 291 294 295 298 300 303 304 304 305 306 311 314 316 328 332 333 334 332 330 325 322 321 321 319 317 312 308 306 305 303 302 299 298
286 289 288 287 290 290 292 291 289 289 288 296 297 297 302 304 305 303 304 308 315 321 324 323 326 329 331 328 326 325 322 320 320 317 314 312 308 304 300 298 297 295 294 294
282 287 285 283 286 288 290 292 292 288 291 295 295 299 300 303 305 306 306 309 318 321 322 322 323 325 323 322 322 321 319 318 316 314 311 308 304 300 296 293 292 290 290 293
282 284 273 289 292 290 288 291 294 291 292 294 294 296 299 305 306 305 308 314 317 320 319 319 320 319 319 318 317 316 315 314 313 311 308 305 301 297 294 292 291 290 290 291
281 280 283 290 288 286 286 286 293 291 292 293 294 295 299 306 308 310 310 314 320 320 318 318 317 317 317 316 316 315 314 313 312 310 308 304 300 296 293 292 291 290 290 289
283 279 277 285 289 292 292 283 291 290 290 292 293 288 293 303 307 310 310 311 319 319 319 318 318 318 315 314 313 313 313 312 312 311 308 304 302 298 295 294 293 291 290 289
281 280 286 288 290 292 281 283 290 291 293 298 292 295 299 306 309 314 317 318 319 318 316 316 318 316 314 313 312 313 313 312 311 308 305 302 298 296 293 291 290 289 287 286
278 278 276 290 290 283 287 289 291 294 298 298 299 301 304 307 310 314 315 318 317 316 315 316 315 314 312 311 313 313 312 310 308 306 303 300 297 295 295 290 287 285 285 285
281 278 286 292 290 293 292 292 295 297 299 301 301 302 305 307 312 314 314 316 316 314 313 313 313 313 311 311 312 310 308 304 301 301 302 302 300 297 292 288 285 285 285 284
284 287 288 289 292 293 293 293 298 300 300 301 300 303 306 308 308 309 311 311 312 311 310 309 311 311 311 309 304 300 296 294 294 293 292 293 295 293 290 287 285 285 284 283
285 288 288 291 291 292 293 297 298 300 300 301 302 304 306 306 306 307 308 309 310 308 307 305 303 302 303 302 298 294 292 291 289 288 287 286 287 287 285 284 287 284 281 282
281 288 288 288 292 294 293 296 298 299 300 302 304 304 305 304 306 306 307 308 307 303 301 300 299 298 298 297 295 291 289 288 288 287 287 286 286 286 290 289 289 288 288 287
287 291 291 291 294 295 296 297 299 300 300 301 303 304 304 304 305 306 306 304 302 302 300 300 297 295 295 294 293 290 287 286 286 286 286 286 286 286 285 288 290 290 290 290
291 291 290 292 291 295 297 298 300 301 301 302 303 304 304 304 304 304 303 303 303 302 300 298 296 294 294 293 291 289 288 289 287 287 287 287 287 286 286 286 285 286 288 290
291 292 292 294 295 295 297 297 297 298 300 301 303 302 302 301 301 302 304 303 301 300 298 297 295 293 295 293 291 289 288 287 288 289 289 288 287 286 285 284 283 284 287 288
291 292 293 293 293 293 295 296 296 297 299 300 300 301 302 303 303 302 302 302 299 297 297 297 296 296 295 294 292 291 291 291 291 291 290 289 289 287 285 285 286 286 285 283
288 288 291 292 292 292 294 296 297 297 298 299 300 301 301 302 302 301 301 302 301 300 300 300 298 299 299 298 296 295 294 292 291 290 289 288 287 286 287 286 286 285 283 285
293 293 294 294 293 293 295 296 297 298 298 299 300 300 300 299 298 299 298 299 299 298 298 298 298 298 297 297 296 294 293 291 290 288 288 287 287 287 287 286 286 285 285 285
293 293 294 294 294 294 295 296 297 298 299 299 298 297 298 298 298 298 298 297 296 294 294 296 295 296 295 295 295 294 292 291 290 289 288 288 287 287 286 286 286 286 286 285
293 295 295 295 295 295 294 297 298 298 298 298 297 296 295 296 297 296 297 295 295 294 295 295 295 294 294 293 293 293 292 291 290 289 288 287 287 286 286 286 286 285 285 284
294 295 295 295 295 296 296 298 297 297 298 297 295 295 295 296 296 296 294 293 294 295 295 294 294 293 293 292 292 291 291 290 289 288 288 287 286 285 285 286 286 286 285 284
295 294 295 295 295 295 296 297 297 297 297 296 296 296 295 295 295 295 295 293 292 293 292 292 291 290 291 290 291 290 290 290 289 288 287 287 286 286 285 285 285 285 284 283
295 295 296 295 295 295 296 297 297 297 296 296 295 295 295 294 295 293 292 295 292 289 291 291 288 287 288 293 292 291 290 289 288 287 287 287 286 286 285 284 285 284 283 283
295 295 296 296 296 296 294 296 297 298 298 297 297 297 296 294 294 296 296 290 288 291 291 290 289 288 290 292 292 291 290 289 288 287 286 286 286 285 284 284 283 283 283 283
295 296 296 295 295 294 295 296 296 297 297 297 297 298 297 296 294 294 293 290 288 291 291 287 288 289 292 291 290 289 288 288 287 287 286 285 284 285 285 285 284 284 283 283
295 294 295 296 296 296 296 296 294 295 296 295 296 297 295 294 293 292 290 290 292 290 292 294 293 293 292 291 290 289 289 289 289 288 287 286 286 285 284 284 284 284 283 283
296 294 295 295 296 296 297 296 295 295 295 295 294 295 295 293 292 291 290 291 291 291 292 293 293 292 292 291 290 290 289 289 288 287 287 286 286 285 285 285 284 284 284 284

GFSNGP_sfc_thetae_171.txt.gz
Theta_e
288 289 288 287 287 288 286 287 283 285 286 290 293 294 297 298 298 303 303 305 305 305 308 313 318 330 335 335 336 335 327 324 322 320 318 315 313 312 310 306 304 304 302 301
286 289 289 286 288 289 288 291 289 290 288 295 296 297 296 299 302 304 304 306 308 309 317 315 323 328 330 330 329 326 322 319 316 313 312 309 307 304 302 300 299 299 298 299
280 287 285 282 287 286 286 289 289 287 289 294 293 294 294 295 297 301 305 305 307 313 319 322 325 327 326 325 324 321 317 315 313 310 308 306 303 299 296 295 295 295 296 299
281 282 268 285 290 289 286 288 291 289 291 292 293 295 296 296 297 300 306 307 312 319 322 324 324 323 322 321 319 316 313 311 309 306 303 300 297 295 294 294 293 293 293 294
280 279 281 288 288 287 284 285 290 288 290 291 293 295 293 299 304 306 310 307 311 319 319 319 318 318 318 316 315 313 311 309 307 304 299 297 295 294 292 291 291 290 291 291
281 278 276 283 288 291 290 282 289 289 289 289 292 288 292 299 303 306 310 308 315 317 316 315 315 315 314 313 312 310 308 305 304 301 297 294 293 292 292 291 290 290 289 290
278 279 281 287 289 291 280 282 289 289 290 292 292 296 297 300 302 309 310 309 316 315 313 313 314 313 311 311 310 310 309 305 302 299 297 296 294 291 290 289 288 288 287 286
280 276 276 288 289 283 287 290 290 291 293 295 298 301 302 303 307 311 312 315 316 315 315 316 316 314 311 309 309 308 306 303 300 298 296 294 293 289 288 288 287 286 285 285
282 280 286 286 288 293 292 290 292 292 296 298 298 301 303 307 311 313 313 314 315 313 313 314 315 313 309 309 308 306 304 300 297 296 295 293 289 287 286 287 286 285 286 285
284 287 286 288 292 293 293 292 294 297 298 299 299 303 306 308 310 312 312 311 312 312 310 309 311 310 309 309 306 303 300 299 298 297 294 291 289 287 286 286 286 286 285 284
285 287 287 290 291 292 292 294 296 299 299 300 302 304 305 305 307 309 310 311 311 309 308 307 306 303 302 302 300 298 297 296 294 291 288 286 286 285 285 284 286 285 282 285
281 289 287 288 291 293 292 292 296 298 299 303 304 304 305 305 306 303 302 303 302 301 301 300 300 299 300 300 298 296 293 292 290 288 286 287 286 286 290 289 289 289 289 288
287 291 290 291 292 294 293 295 298 299 301 302 304 305 303 301 302 302 301 300 299 299 299 298 296 296 297 297 296 292 290 289 288 287 287 287 287 287 286 289 290 290 289 289
292 291 289 292 290 294 295 297 299 301 302 302 303 305 302 302 302 301 299 299 299 298 297 296 293 292 293 292 290 289 288 289 287 287 287 287 287 287 287 286 285 285 288 288
291 292 292 293 294 294 297 298 297 298 301 300 302 301 301 300 299 299 300 299 298 296 295 295 292 290 291 290 289 288 287 287 287 287 287 287 286 285 285 285 285 285 285 286
291 292 293 293 293 294 295 296 297 298 300 300 300 300 301 300 299 299 299 299 296 294 295 293 290 290 290 289 289 288 288 289 288 288 287 286 286 285 285 285 284 284 283 282
289 289 291 292 292 294 295 297 298 298 299 300 300 300 300 300 299 298 298 298 297 295 294 292 290 291 291 290 290 290 290 290 290 289 287 286 287 286 285 284 284 283 282 283
293 293 294 294 293 294 295 297 298 299 299 300 301 300 299 298 297 297 298 298 297 295 295 294 294 294 294 293 292 291 290 289 288 287 287 287 286 286 286 285 284 284 282 283
293 294 294 294 295 295 296 297 297 298 298 298 298 297 298 298 298 298 298 296 295 294 294 296 295 295 294 293 292 291 289 288 287 287 287 286 286 285 285 284 283 282 283 283
293 295 295 295 296 296 297 298 297 296 297 297 297 296 295 296 297 296 295 293 294 294 295 295 295 293 293 292 291 290 289 288 287 287 286 285 285 284 284 284 284 283 283 282
294 294 294 295 295 297 297 298 296 295 296 297 296 295 295 296 297 296 294 292 292 294 294 294 294 292 292 291 291 290 289 288 287 287 286 285 285 284 283 284 284 283 282 281
294 295 295 295 295 296 297 297 296 296 296 296 296 295 294 293 293 292 293 291 292 291 293 293 292 290 290 289 290 289 288 288 286 286 285 285 284 284 283 283 283 282 281 280
295 295 295 295 295 296 297 297 296 296 295 295 295 295 294 294 294 292 290 292 292 291 292 291 287 287 287 290 289 289 288 287 286 285 284 284 284 283 283 282 282 282 281 280
295 295 296 296 296 296 295 296 297 296 296 296 296 296 295 293 294 295 293 290 288 290 290 289 288 287 289 290 289 288 287 286 286 285 284 284 283 283 283 282 281 281 281 282
296 296 295 295 294 294 295 297 296 296 296 296 295 296 296 297 295 294 294 292 289 290 290 287 287 287 290 289 288 288 287 286 286 286 285 283 282 283 282 282 281 281 281 281
295 295 295 296 296 296 296 296 295 296 296 295 295 295 295 296 296 295 293 292 293 290 291 291 291 290 289 289 288 287 286 285 286 285 285 284 283 283 282 282 282 282 282 281
296 294 296 295 296 296 296 296 295 295 296 296 294 295 295 295 293 292 290 292 293 293 291 292 291 290 290 289 289 288 288 287 286 286 285 285 284 284 283 283 282 282 282 282

GFSNGP_sfc_thetae_174.txt.gz
Theta_e
288 289 289 288 287 288 285 287 283 286 286 290 294 295 295 296 298 299 300 303 304 304 304 305 308 313 329 334 338 336 335 331 325 321 319 317 314 313 313 311 310 309 308 308
285 288 288 286 288 288 288 289 287 288 287 293 295 296 296 296 296 296 298 301 305 306 308 309 311 316 331 334 334 334 327 321 319 316 315 312 310 309 308 306 306 306 305 305
278 285 284 279 286 287 286 287 287 283 288 290 290 291 293 294 295 296 297 299 301 306 308 309 314 325 328 329 327 322 317 315 313 311 308 307 306 305 305 303 303 303 303 305
280 282 268 285 291 289 286 287 290 288 288 290 291 293 294 295 295 296 298 299 302 309 309 312 319 324 324 321 317 314 312 310 308 306 303 302 301 301 299 300 300 300 301 300
277 275 280 286 287 286 284 283 290 288 289 290 292 292 292 299 301 299 300 303 308 309 311 321 323 322 318 315 313 311 308 306 304 303 302 302 299 299 296 296 296 295 297 295
281 277 274 284 288 291 289 280 290 289 289 288 289 284 290 299 302 302 304 307 309 311 318 320 321 319 315 313 310 307 306 305 305 304 302 298 297 294 295 295 293 294 293 294
278 278 280 287 289 291 276 280 289 290 290 289 287 291 296 299 301 305 305 308 313 317 316 316 316 314 311 309 306 305 304 302 301 301 297 296 294 294 293 292 291 291 290 291
280 276 273 288 288 282 284 291 290 291 291 290 293 295 298 300 303 306 307 312 313 312 312 313 312 309 306 303 303 301 300 298 297 296 295 294 292 291 291 291 289 289 290 289
282 281 287 289 287 289 292 290 290 291 292 293 295 297 300 301 307 309 312 312 312 311 309 309 308 306 302 301 302 300 297 295 294 293 293 292 291 289 289 290 289 289 288 288
284 287 287 289 289 293 292 291 292 294 294 295 297 300 304 310 311 311 312 312 313 311 309 307 307 306 303 300 299 297 295 293 292 291 290 290 290 290 289 289 289 288 287 286
285 287 289 289 290 291 292 293 294 295 296 298 301 303 302 300 310 310 310 311 312 309 307 305 305 302 301 299 299 296 294 292 290 289 287 287 287 287 287 288 289 287 286 287
283 288 287 288 291 292 292 292 294 295 297 301 303 301 300 299 301 305 307 307 303 302 301 300 301 300 300 300 298 293 290 289 288 287 288 288 287 287 290 289 290 289 289 288
287 291 291 291 292 294 293 294 296 298 300 301 302 301 299 298 300 301 300 300 300 299 299 299 298 298 298 298 296 291 288 288 288 288 288 288 288 288 286 288 290 289 289 288
293 291 289 291 290 294 294 296 299 301 302 302 301 301 299 298 298 298 297 298 298 297 297 297 296 295 296 294 292 289 289 290 289 289 289 288 288 287 287 286 285 286 288 287
291 292 292 293 294 294 296 297 298 299 300 300 300 299 299 298 296 296 296 296 296 294 293 293 292 292 292 291 289 289 289 289 289 289 288 288 287 287 286 286 285 284 285 285
291 292 293 293 293 294 296 297 297 298 298 298 298 298 298 298 297 296 297 297 294 291 292 291 290 291 291 290 289 289 289 289 288 288 288 287 287 286 285 285 284 284 283 283
289 289 290 291 292 294 295 298 298 298 299 298 298 298 297 297 296 295 295 295 293 292 291 290 290 291 291 290 289 289 289 289 288 288 287 287 287 286 286 285 284 284 283 283
293 293 294 294 293 294 296 297 298 298 298 299 299 298 297 296 294 293 293 293 291 290 290 291 292 292 291 291 290 290 289 289 288 288 288 287 287 286 286 286 285 284 284 283
294 294 294 294 295 296 297 296 297 298 298 298 298 297 297 297 296 295 295 292 291 289 291 293 292 292 291 291 291 290 289 288 288 288 288 287 287 286 286 286 285 285 285 284
294 295 295 295 297 297 296 297 297 297 297 297 296 295 295 295 296 295 294 292 293 293 293 293 292 291 291 291 290 289 289 289 288 288 287 287 286 286 286 285 286 285 285 284
294 295 295 295 296 297 296 297 296 296 296 297 295 294 294 295 295 295 292 290 292 294 293 292 292 291 290 290 290 289 289 288 288 287 287 286 286 286 286 286 286 286 285 284
295 295 295 296 296 295 296 297 296 296 295 295 295 295 293 292 292 292 293 291 293 291 292 292 291 289 289 288 290 289 289 288 287 287 287 287 286 286 286 286 286 286 285 285
295 295 295 296 296 295 296 296 296 296 295 295 295 294 293 294 294 291 289 292 293 290 291 290 286 286 287 290 289 289 289 288 287 287 287 287 287 286 286 286 286 285 285 285
295 295 295 297 297 296 294 295 296 296 295 295 296 296 294 292 291 292 291 289 287 289 289 289 287 286 288 290 289 288 288 288 287 287 287 285 287 286 286 286 285 285 285 285
296 296 295 295 295 295 295 295 295 295 294 294 295 296 296 295 293 292 292 290 288 290 289 286 287 287 290 289 289 288 288 288 287 287 287 287 287 286 286 286 286 285 285 286
295 295 296 296 295 296 296 296 294 295 294 293 294 295 295 295 294 294 293 292 292 289 290 291 291 290 290 289 289 288 288 287 287 287 287 287 286 286 286 286 286 286 286 286
296 295 296 295 296 296 297 296 295 295 295 294 294 295 295 295 293 293 291 293 294 293 291 291 290 289 289 289 289 289 288 288 287 287 287 287 287 287 287 287 287 286 286 286